Location: Gazzuolo
(45.0667°N, 10.5833°E)
Time: 06:05:37
(UTC+00:00)

Daily predictions for brighter satellites

Satellite Brightness Start Highest point End
(mag) Time Altitude Azimuth Time Altitude Azimuth Time Altitude Azimuth
Meteor 1-21 4.4 19:38:51 10° SSW 19:44:31 81° W 19:50:10 10° N
Cosmos 2263 Rocket 3.7 19:44:02 10° NW 19:49:04 33° WSW 19:54:05 10° SSW
MetOp-B 4.3 19:46:58 10° SSE 19:52:14 61° ENE 19:57:31 10° N
Cosmos 1110 Rocket 4.2 19:47:23 10° S 19:52:20 49° ESE 19:57:21 10° NNE
In-Cosmos 22 4.0 19:50:09 10° S 19:55:25 78° E 20:00:44 10° NNE
Cosmos 1908 3.8 19:53:14 10° N 19:56:57 43° ENE 20:00:37 10° SSE
Cosmos 1544 Rocket 4.5 19:54:08 10° N 19:58:14 34° ENE 20:02:14 10° SE
Cosmos 1626 3.1 19:55:31 10° SSE 19:58:44 29° E 20:01:58 10° NNE
FALCON 9 DEB 3.9 19:57:17 10° WSW 20:00:39 56° NNW 20:04:02 10° NE
Cosmos 1455 Rocket 3.2 19:58:18 10° N 20:02:44 63° E 20:07:09 10° SSE
Okean 1 Rocket 4.3 19:59:26 10° NNW 20:03:33 40° W 20:07:40 10° SSW
Cosmos 2100 Rocket 4.2 19:57:50 10° N 20:04:10 63° E 20:10:24 10° SSE
USA 81 4.2 19:59:46 10° N 20:05:03 81° W 20:10:19 10° S
ARIANE 5 R/B 3.5 20:01:01 10° SE 20:05:06 37° ENE 20:09:16 10° N
Meteor 2-20 Rocket 4.5 19:59:16 10° S 20:05:22 87° E 20:11:30 10° N
ERS-2 4.4 20:02:29 10° N 20:05:40 29° WNW 20:08:50 10° SW
ATLAS 3B R/B 2.9 20:00:25 10° S 20:06:33 45° ESE 20:12:52 10° NE
BREEZE-M DEB (TANK) 2.2 20:04:25 10° SW 20:06:44 69° SSE 20:10:57 10° ENE
Cosmos 1315 Rocket 4.3 20:03:00 10° NNW 20:06:48 36° W 20:10:34 10° SSW
Cosmos 1707 3.9 20:03:23 10° SSW 20:07:07 45° WNW 20:10:53 10° N
IGS 5A 3.8 20:04:10 10° S 20:08:17 66° WSW 20:12:27 10° NNW
Cosmos 2333 4.5 20:04:15 10° S 20:09:43 48° ESE 20:15:12 10° NE
Cosmos 1461 3.0 20:07:34 10° NW 20:11:46 69° WSW 20:15:24 12° SSE
ATLAS CENTAUR R/B 2.0 20:10:09 10° NNW 20:14:24 52° NE 20:18:22 13° SE
Cosmos 2173 Rocket 4.1 20:10:47 10° N 20:17:11 74° E 20:23:32 10° SSE
Cosmos 405 4.1 20:14:34 10° NNE 20:17:35 28° ENE 20:19:49 15° SE
SL-8 R/B 3.8 20:13:29 10° WNW 20:18:15 67° SSW 20:22:21 14° SE
Cosmos 1452 Rocket 4.5 20:14:01 10° SW 20:19:10 51° WNW 20:24:20 10° NNE
SL-4 R/B 3.3 20:17:28 10° S 20:20:33 20° SE 20:23:28 10° E
Cosmos 2016 Rocket 4.3 20:15:07 10° N 20:21:05 52° ENE 20:26:21 13° SSE
Cosmos 2219 Rocket 2.6 20:17:13 10° S 20:22:32 43° ESE 20:27:52 10° NE
Meteor 2-5 Rocket 4.5 20:18:44 12° SSE 20:23:11 34° E 20:28:11 10° NNE
Cosmos 2333 Rocket 2.4 20:18:17 10° S 20:23:49 51° ESE 20:29:21 10° NE
FALCON 9 DEB 2.8 20:23:01 10° SW 20:26:05 63° SE 20:29:12 10° ENE
ERS-1 Rocket 3.4 20:24:08 14° SE 20:28:14 50° ENE 20:33:07 10° N
Cosmos 1025 Rocket 3.0 20:24:16 10° S 20:28:36 71° E 20:32:58 10° NNE
Geosat 4.5 20:24:37 14° SE 20:28:48 52° ENE 20:33:41 10° NNW
Lacrosse 5 rocket 1.6 20:26:07 10° WSW 20:29:46 60° NW 20:33:21 10° NE
OPS 8737 4.5 20:25:57 10° SW 20:30:10 86° SE 20:33:23 10° NE
Cosmos 1844 3.7 20:25:43 10° NNW 20:31:18 83° WSW 20:36:02 15° SSE
Cosmos 1536 Rocket 4.1 20:28:12 15° SSE 20:31:37 41° E 20:35:48 10° NNE
Spot 2 Rocket 3.5 20:28:30 13° SSE 20:32:59 81° ENE 20:38:06 10° NNW
Cosmos 1725 Rocket 4.2 20:29:24 10° N 20:35:32 59° ENE 20:40:27 16° SSE
USA 215 4.5 20:31:38 10° E 20:36:00 19° ESE 20:38:12 16° SSE
Cosmos 1331 Rocket 4.2 20:30:56 10° SSW 20:36:11 78° WNW 20:41:30 10° NNE
Cosmos 1900 4.4 20:35:22 10° NW 20:40:16 73° WSW 20:43:50 18° SSE
DNEPR-1 R/B 3.6 20:36:17 10° NNW 20:40:31 74° NE 20:43:36 20° SE
FALCON 9 DEB 3.2 20:38:40 10° WSW 20:41:45 69° NNW 20:44:50 10° NE
CARTOSAT-1 3.6 20:40:17 16° SSE 20:43:42 85° WSW 20:48:04 10° NNW
Cosmos 2237 Rocket 3.6 20:41:59 16° SE 20:43:56 19° E 20:47:45 10° ENE
Terra 2.3 20:41:19 18° SE 20:44:35 49° ENE 20:49:11 10° N
SL-14 R/B 3.3 20:41:31 14° S 20:44:51 69° E 20:48:52 10° NNE
SPOT 1/Viking Rocket 4.1 20:40:41 10° S 20:45:43 55° W 20:50:47 10° NNW
Cosmos 2360 Rocket 3.1 20:41:23 10° SW 20:46:53 52° WNW 20:52:25 10° NNE
Cosmos 1674 4.1 20:43:33 10° SW 20:46:59 36° WNW 20:50:27 10° N
FALCON 9 DEB 3.0 20:46:35 10° WSW 20:49:41 75° NNW 20:52:49 10° NE
Cosmos 2322 Rocket 4.2 20:46:15 10° WSW 20:51:17 31° NW 20:56:21 10° N
SPOT 5 2.9 20:48:15 18° SSE 20:52:04 82° ENE 20:56:56 10° NNW
Cosmos 1953 3.6 20:48:24 10° NNW 20:52:11 37° W 20:55:54 10° SSW
FALCON 9 DEB 3.4 20:49:14 10° WSW 20:52:18 60° NNW 20:55:24 10° NE
Cosmos 1455 4.4 20:51:33 10° NE 20:53:35 14° ENE 20:55:06 11° E
Meteor 1-24 Rocket 3.9 20:51:24 18° SSE 20:55:07 50° E 21:00:26 10° NNE
Cosmos 1802 Rocket 4.2 20:50:02 10° NNW 20:56:18 73° W 21:01:56 14° S
Cosmos 1302 Rocket 3.9 20:52:14 10° SSW 20:57:30 83° ESE 21:02:46 10° NNE
Cosmos 1459 Rocket 4.5 20:51:47 10° NNW 20:57:41 57° W 21:03:32 10° S
H-2A R/B 3.9 20:54:08 10° NNE 20:58:00 40° E 20:59:52 25° SSE
Cosmos 1300 2.6 21:00:30 10° N 21:04:20 88° E 21:06:19 27° S
Resurs 01 Rocket 4.0 21:02:10 10° SW 21:05:06 17° W 21:08:04 10° NW
Cosmos 1340 3.3 21:07:27 12° SSW 21:10:51 52° WNW 21:14:33 10° N
Cosmos 2322 4.1 21:08:52 10° SW 21:14:29 66° WNW 21:20:08 10° NNE
COSMOS 2428 2.7 21:10:23 10° SSW 21:16:08 90° SSE 21:21:56 10° NNE
Cosmos 2278 Rocket 2.7 21:11:57 10° NNW 21:17:31 52° ENE 21:20:55 23° SE
Cosmos 1844 Rocket 4.1 21:13:22 10° NW 21:18:12 30° WSW 21:22:30 12° SSW
GENESIS II 4.4 21:20:01 33° S 21:21:19 47° ESE 21:25:05 10° NE
NOSS 0 Rocket 4.1 21:17:59 20° S 21:22:10 53° ESE 21:28:13 10° NE
Cosmos 389 Rocket 2.7 21:20:03 10° N 21:23:24 52° ENE 21:24:17 39° SE
Cosmos 1726 Rocket 4.3 21:20:56 10° N 21:25:11 41° ENE 21:26:53 29° SE
Cosmos 2058 Rocket 4.5 21:21:43 10° NNE 21:25:29 26° ENE 21:27:08 21° ESE
Cosmos 1867 3.6 21:20:26 10° NW 21:25:57 87° NE 21:28:54 28° SE
ATLAS 2A CENTAUR R/B 4.5 21:24:10 10° SW 21:27:15 12° SSW 21:27:25 12° SSW
Cosmos 968 Rocket 3.5 21:25:46 10° NNW 21:30:52 70° WSW 21:33:29 29° S
Cosmos 1486 Rocket 3.9 21:31:09 10° NNW 21:36:23 84° WSW 21:38:52 32° SSE
SJ 16-02 3.8 21:35:45 10° NNE 21:37:39 12° NE 21:39:33 10° ENE
Meteor 2-10 Rocket 3.4 21:35:10 10° NNW 21:40:14 82° W 21:42:36 32° S
Cosmos 1606 Rocket 3.5 21:36:24 10° N 21:40:53 78° E 21:42:32 38° SSE
Cosmos 1992 Rocket 3.9 21:37:58 22° SSW 21:41:21 85° ESE 21:46:37 10° NNE
ARIANE 5 R/B 4.5 21:38:34 12° SW 21:41:39 23° W 21:45:17 10° NW
Cosmos 2233 Rocket 4.1 21:35:40 10° NNW 21:41:47 69° W 21:45:35 24° S
Cosmos 1943 Rocket 4.2 21:38:49 10° N 21:42:47 20° NE 21:46:45 10° E
Cosmos 1892 Rocket 3.8 21:43:59 38° SE 21:45:17 53° E 21:49:38 10° NNE
Cosmos 1346 Rocket 3.0 21:47:04 31° SSW 21:48:49 68° W 21:52:51 10° N
Cosmos 1354 Rocket 4.1 21:47:20 10° NNW 21:52:42 69° ENE 21:55:00 34° SE
ATLAS CENTAUR R/B 3.3 21:49:41 10° WNW 21:53:01 21° WSW 21:54:30 18° SW
Cosmos 1980 3.6 21:51:14 27° SSW 21:54:27 74° ESE 22:00:08 10° NNE
Cosmos 1441 Rocket 4.0 21:54:42 33° ESE 21:54:56 34° E 21:58:25 10° NNE
BREEZE-M DEB (TANK) 3.2 21:45:01 10° SW 21:56:28 66° SSE 21:59:53 10° ENE
ATLAS 3B R/B 3.8 21:51:01 10° WSW 21:57:16 44° NW 22:03:45 10° NNE
ALOS 2 3.9 21:57:54 24° ESE 21:59:27 31° ENE 22:03:18 10° N
NOSS 3-1 (C) 4.3 21:59:23 24° ESE 21:59:41 24° ESE 22:04:15 10° ENE
SL-4 R/B 1.8 21:55:40 10° WSW 21:59:49 86° NNW 22:03:38 10° ENE
Cosmos 2219 Rocket 3.8 22:01:29 10° WSW 22:06:35 33° NW 22:11:43 10° N
Cosmos 2333 Rocket 4.1 22:03:24 10° WSW 22:08:21 29° NW 22:13:19 10° N
Cosmos 1703 3.5 22:08:43 48° ESE 22:09:09 50° E 22:13:00 10° NNE
Lacrosse 5 rocket 4.2 22:07:02 10° WNW 22:09:28 17° NNW 22:11:52 10° NNE
Cosmos 1607 3.9 22:03:31 10° NW 22:09:58 83° WSW 22:12:53 34° SSE
Cosmos 2228 4.0 22:08:23 10° NNW 22:12:30 39° W 22:14:06 28° SW
Cosmos 1626 Rocket 4.4 22:12:19 33° ESE 22:13:00 35° E 22:17:04 10° NNE
Iridium 2 3.9 22:12:19 47° SW 22:13:08 62° W 22:16:52 10° N
Cosmos 2346 Rocket 4.5 22:16:24 36° SSE 22:19:00 71° E 22:25:10 10° NNE
USA 215 3.2 22:13:14 10° NE 22:19:46 70° SE 22:25:28 14° SW
Meteor 2-1 Rocket 4.1 22:14:34 10° N 22:20:07 83° E 22:22:14 40° SSE
Terra 3.8 22:20:12 14° SW 22:22:35 20° W 22:26:04 10° NW
COBE Rocket 4.0 22:22:09 42° SSE 22:23:49 73° ENE 22:28:44 10° N
SL-16 R/B 2.7 22:23:55 37° SE 22:25:17 44° ESE 22:30:38 10° NE
Cosmos 2237 Rocket 2.4 22:23:45 22° SW 22:27:23 67° WNW 22:33:01 10° NNE
Cosmos 1455 2.8 22:25:47 10° NNW 22:29:26 45° W 22:29:59 42° WSW
Cosmos 1184 Rocket 3.3 22:29:49 49° W 22:29:58 50° WNW 22:33:08 10° N
Cosmos 1328 3.9 22:31:00 55° ESE 22:31:13 56° E 22:35:03 10° NNE
Cosmos 1464 Rocket 4.1 22:25:15 10° N 22:31:37 78° W 22:34:26 36° S
Cosmos 2369 Rocket 3.9 22:32:17 10° N 22:37:04 27° NE 22:41:39 11° ESE
GEOS 3 Rocket 3.6 22:38:08 40° SSE 22:40:09 83° SW 22:45:32 10° NW
ATLAS CENTAUR R/B 3.2 22:40:44 28° SW 22:43:43 83° SE 22:56:16 10° NE
Cosmos 1816 Rocket 4.4 22:47:50 39° S 22:50:16 86° E 22:56:26 10° N
NOSS 2-3 (D) 4.2 22:51:07 37° ESE 22:51:07 37° ESE 22:55:02 10° NE
USA 32 4.1 22:46:34 10° N 22:51:49 67° E 22:53:23 44° SSE
Aureole 3 4.3 22:48:25 10° N 22:52:14 43° E 22:53:19 36° ESE
USA 267 3.5 22:46:53 11° ESE 22:53:10 69° NNE 22:59:41 10° NW
Okean 1-7 Rocket 4.2 22:54:15 37° SW 22:55:32 49° WNW 22:59:51 10° N
Cosmos 1812 Rocket 3.6 22:54:15 10° N 22:58:36 69° E 22:59:22 56° SE
BREEZE-M DEB (TANK) 3.8 22:56:57 10° WNW 23:00:34 56° N 23:11:26 10° E
Cosmos 2278 Rocket 3.5 22:56:40 10° NW 23:01:15 26° WSW 23:02:45 23° SW
Cosmos 2058 Rocket 4.3 22:59:36 10° NNW 23:03:28 30° W 23:04:24 27° WSW
Cosmos 2297 3.6 22:58:30 10° NNW 23:04:11 87° ENE 23:06:11 42° SSE
NOSS 2-3 (C) 3.5 23:07:22 57° SE 23:07:31 58° ESE 23:12:07 10° NE
Cosmos 2034 Rocket 4.2 23:01:39 10° NNW 23:07:42 58° W 23:10:01 36° SSW
Thor Agena Rocket 3.7 23:03:16 10° NNE 23:08:28 60° ESE 23:09:46 46° SSE
SAR-Lupe-2 3.4 23:05:58 10° NNE 23:09:33 89° N 23:09:33 89° N
SJ 16-02 1.2 23:12:27 10° NNW 23:16:51 82° WSW 23:17:27 65° S
Meteor 1-11 4.2 23:19:57 43° SSW 23:21:51 79° W 23:27:28 10° N
GP-B 3.0 23:20:47 10° N 23:25:15 80° W 23:26:01 60° SSW
Meteor 1-27 4.2 23:19:43 10° N 23:25:18 78° E 23:27:14 42° SSE
Cosmos 1825 Rocket 3.7 23:25:14 53° SE 23:25:56 62° E 23:30:20 10° NNE
Meteor 1-4 Rocket 3.9 23:23:54 10° NNW 23:26:36 28° W 23:26:36 28° W
Cosmos 1943 Rocket 2.0 23:21:40 10° NNW 23:27:11 79° WSW 23:28:53 46° S
Cosmos 1892 2.8 23:30:16 59° ESE 23:30:27 60° E 23:34:17 10° NNE
Cosmos 2142 Rocket 4.5 23:29:09 10° N 23:35:19 76° E 23:37:53 37° SSE
ALOS 2 3.9 23:35:17 27° WSW 23:35:46 27° W 23:39:31 10° NW
Cosmos 1437 Rocket 4.3 23:32:48 10° NNE 23:36:07 26° ENE 23:37:15 22° E
Tsikada Rocket 4.4 23:34:13 31° SW 23:36:56 52° WNW 23:42:57 10° N
Cosmos 1869 3.4 23:33:29 10° N 23:37:35 70° E 23:38:08 60° SE
CZ-2D R/B 4.2 23:35:07 10° NE 23:38:06 15° E 23:40:22 12° ESE
Cosmos 1943 3.8 23:36:45 35° SE 23:38:12 41° ESE 23:43:27 10° NE
SL-4 R/B 3.6 23:36:09 10° WNW 23:39:42 32° N 23:43:03 10° NE
Cosmos 990 Rocket 4.1 23:35:43 10° NNW 23:40:55 72° ENE 23:42:50 39° SE
Lacrosse 4 Rocket 4.1 23:38:38 10° N 23:41:14 16° NE 23:43:47 10° E
USA 229 DEB 3.5 23:38:46 37° SSW 23:41:32 81° SE 23:48:23 10° NE
USA 229 3.5 23:38:53 37° SSW 23:41:38 81° SE 23:48:29 10° NE
EO 1 Del DPAF 3.4 23:38:52 10° NNE 23:42:32 56° E 23:42:38 55° ESE
DELTA 2 R/B (1) 4.2 23:47:09 35° SE 23:47:09 35° SE 23:51:17 10° E
Cosmos 1603 4.1 23:46:12 39° SSE 23:47:50 52° ESE 23:53:19 10° NE
NOSS 3-1 (C) 3.7 23:46:44 26° WSW 23:49:50 60° NW 23:56:06 10° NE
Cosmos 1953 Rocket 3.5 23:50:41 58° SSE 23:51:28 75° E 23:55:53 10° NNE
SL-16 R/B 4.1 23:46:53 10° ESE 23:52:07 30° ENE 23:57:21 10° N
Cosmos 1408 2.4 23:53:09 84° SW 23:53:15 87° W 23:56:58 10° N
Cosmos 1825 2.5 23:54:28 51° ESE 23:54:44 52° E 23:58:26 10° NNE
USA 306 4.1 23:56:43 28° ESE 23:56:43 28° ESE 23:59:49 10° ENE
